Date,TemperatureHighF,TemperatureAvgF,TemperatureLowF,DewpointHighF,DewpointAvgF,DewpointLowF,HumidityHigh,HumidityAvg,HumidityLow,PressureMaxIn,PressureMinIn,WindSpeedMaxMPH,WindSpeedAvgMPH,GustSpeedMaxMPH,PrecipitationSumIn
2013-1-1,75.5,66.2,59.7,62.0,59.3,56.8,90,79,62,30.09,30.07,3,0,3,0.00
2013-1-2,79.2,67.7,57.9,67.5,62.4,55.6,94,84,64,30.10,30.00,8,0,8,0.00
2013-1-3,72.5,65.4,59.4,66.3,62.1,55.8,94,89,80,30.21,30.06,8,0,8,0.07
2013-1-4,59.5,57.3,55.3,57.7,55.5,53.7,94,94,93,30.31,30.18,8,0,8,0.25
2013-1-5,72.8,60.8,54.5,64.0,56.6,52.1,93,86,73,30.34,30.21,5,0,5,0.10
2013-1-6,79.9,69.5,60.9,70.0,64.2,58.2,93,84,67,30.24,30.07,10,0,10,0.25
2013-1-7,69.4,62.5,56.3,61.9,58.3,52.8,94,87,72,30.26,30.15,8,0,8,0.19
2013-1-8,78.3,68.5,62.5,70.7,65.4,60.5,95,90,74,30.26,30.16,4,0,4,0.00
2013-1-9,78.7,71.7,66.8,74.0,68.7,64.9,95,90,81,30.33,30.22,2,0,2,0.03
2013-1-10,80.5,71.6,64.8,69.6,66.2,62.8,94,84,63,30.34,30.24,8,0,8,0.01
2013-1-11,80.7,69.5,61.8,69.6,64.6,59.7,94,85,61,30.29,30.18,5,0,5,0.00
2013-1-12,80.0,69.1,61.0,68.6,64.0,59.0,95,85,60,30.23,30.11,3,0,4,0.00
2013-1-13,80.1,67.5,60.0,67.9,62.7,58.0,94,86,58,30.20,30.09,6,0,6,0.00
2013-1-14,81.1,71.7,61.8,67.6,65.0,59.6,93,80,61,30.22,30.13,3,0,3,0.00
2013-1-15,80.3,71.3,63.4,68.6,65.6,61.0,94,83,63,30.18,30.07,4,0,4,0.00
2013-1-16,81.0,71.1,61.4,66.3,63.5,59.2,94,78,53,30.14,30.02,8,0,8,0.00
2013-1-17,77.8,64.6,54.1,68.7,59.4,47.8,94,84,70,30.13,29.97,24,2,24,0.00
2013-1-18,64.8,52.7,43.6,58.7,46.8,0.8,94,80,74,30.32,30.13,18,2,18,0.03
2013-1-19,73.5,62.6,56.3,62.5,57.4,53.4,92,84,68,30.32,30.17,8,0,8,0.00
2013-1-20,72.0,63.7,59.6,63.8,59.0,55.4,94,85,70,30.22,24.29,6,0,6,0.05
2013-1-21,75.3,66.3,60.8,63.1,59.3,57.0,90,79,64,30.13,30.02,6,0,6,0.00
2013-1-22,62.0,57.6,50.1,57.5,49.7,42.9,86,75,53,30.31,30.10,6,0,6,0.00
2013-1-23,67.2,55.0,43.9,48.5,43.8,38.5,88,69,36,30.41,30.30,6,0,6,0.00
2013-1-24,73.2,58.6,46.6,54.4,49.8,30.5,92,75,48,30.36,30.23,11,0,11,0.00
2013-1-25,75.8,62.0,52.4,58.3,53.6,50.3,94,76,49,30.34,30.19,11,0,11,0.00
2013-1-26,75.8,61.3,50.4,59.5,53.7,48.0,94,78,54,30.31,30.17,9,0,9,0.00
2013-1-27,79.0,65.4,54.8,64.4,59.2,52.3,94,81,57,30.35,24.19,6,0,6,0.00
2013-1-28,79.2,70.8,62.4,66.2,63.9,0.0,92,80,62,30.36,24.23,6,0,6,0.00
2013-1-29,82.4,72.5,63.9,68.9,65.7,61.6,93,81,57,30.28,30.11,7,0,7,0.00
2013-1-30,83.0,73.9,65.4,67.0,65.7,62.7,92,77,57,30.13,29.88,10,1,10,0.00
2013-1-31,73.0,60.9,48.7,66.7,47.6,0.0,90,64,36,30.26,24.34,21,2,27,0.06